Location: Veytaux
(46.4185°N, 6.9320°E)
Time: 08:56:57
(UTC+00:00)

Cosmos 2278 Rocket - Pass Details

Date: 27 May 2022
Orbit: 840 x 846 km, 71.0° (Epoch: 01 July)

Event Time Altitude Azimuth Distance (km) Brightness Sun altitude
Rises 01:22:40 0° 321° (NW) 3,416 5.7 -17.6°
Reaches altitude 10° 01:25:42 10° 306° (NW) 2,475 4.7 -17.4°
Maximum altitude 01:29:45 21° 260° (W) 1,836 3.6 -17.0°
Enters shadow 01:30:36 20° 248° (WSW) 1,868 3.5 -17.0°
